SIA727H ROAH-RJTT

Flight info

Callsign SIA727H
Flight time 1h 47m
Altitude 31000
Route AMAMI Y574 SHIBK Y57 SUKBO Y571 BILLY Y21 AKSEL
Aircraft B722/M-SDFGHRWY/C

Departure

Time 2026-04-23 18:03
Airport Naha International Airport (ROAH)

Arrival

Time 2026-04-23 19:50
Airport Tokyo Haneda International Airport (RJTT)
Time Latitude Longitude Altitude Speed Heading
2026-04-23 17:46 26.20493 127.64834 24 ft 0 kts 88°
2026-04-23 17:52 26.20492 127.64815 24 ft 4 kts 88°
2026-04-23 17:53 26.20506 127.64761 23 ft 4 kts 134°
2026-04-23 17:53 26.20526 127.64749 23 ft 3 kts 175°
2026-04-23 17:53 26.20534 127.64749 21 ft 0 kts 177°
2026-04-23 17:57 26.20508 127.64750 21 ft 8 kts 177°
2026-04-23 17:58 26.20443 127.64753 21 ft 10 kts 177°
2026-04-23 17:58 26.20364 127.64757 21 ft 13 kts 177°
2026-04-23 17:58 26.20268 127.64762 20 ft 15 kts 177°
2026-04-23 17:58 26.20159 127.64767 20 ft 17 kts 177°
2026-04-23 17:59 26.20035 127.64773 21 ft 18 kts 178°
2026-04-23 17:59 26.19902 127.64779 20 ft 20 kts 178°
2026-04-23 17:59 26.19759 127.64785 21 ft 22 kts 178°
2026-04-23 17:59 26.19604 127.64791 20 ft 23 kts 178°
2026-04-23 18:00 26.19439 127.64798 20 ft 25 kts 177°
2026-04-23 18:00 26.19275 127.64808 21 ft 24 kts 177°
2026-04-23 18:00 26.19106 127.64817 20 ft 24 kts 177°
2026-04-23 18:00 26.18946 127.64826 20 ft 24 kts 177°
2026-04-23 18:01 26.18782 127.64832 21 ft 23 kts 179°
2026-04-23 18:01 26.18626 127.64835 21 ft 18 kts 178°
2026-04-23 18:01 26.18535 127.64819 21 ft 13 kts 223°
2026-04-23 18:01 26.18510 127.64721 20 ft 15 kts 265°
2026-04-23 18:02 26.18529 127.64649 20 ft 8 kts 322°
2026-04-23 18:02 26.18553 127.64639 20 ft 3 kts 348°
2026-04-23 18:02 26.18666 127.64630 21 ft 43 kts 358°
2026-04-23 18:02 26.19177 127.64605 22 ft 103 kts 357°
2026-04-23 18:03 26.20066 127.64564 24 ft 150 kts 358°
2026-04-23 18:03 26.21103 127.64544 518 ft 152 kts
2026-04-23 18:03 26.22196 127.64588 965 ft 163 kts 357°
2026-04-23 18:03 26.23349 127.64439 1462 ft 171 kts 352°
2026-04-23 18:04 26.24551 127.64303 1973 ft 175 kts 356°
2026-04-23 18:04 26.25756 127.64241 2487 ft 176 kts 355°
2026-04-23 18:04 26.26985 127.64177 2932 ft 179 kts 353°
2026-04-23 18:04 26.28250 127.64117 3296 ft 185 kts 350°
2026-04-23 18:05 26.29556 127.64037 3653 ft 191 kts 349°
2026-04-23 18:05 26.30745 127.63513 3953 ft 181 kts 306°
2026-04-23 18:05 26.31413 127.62368 4362 ft 175 kts 287°
2026-04-23 18:05 26.31660 127.61064 4773 ft 176 kts 271°
2026-04-23 18:06 26.31772 127.59690 5187 ft 181 kts 273°
2026-04-23 18:06 26.31956 127.58293 5582 ft 186 kts 276°
2026-04-23 18:06 26.32169 127.56793 5938 ft 207 kts 276°
2026-04-23 18:06 26.32415 127.55132 6360 ft 226 kts 276°
2026-04-23 18:07 26.32651 127.53367 6805 ft 229 kts 276°
2026-04-23 18:07 26.32886 127.51637 7196 ft 230 kts 275°
2026-04-23 18:07 26.33124 127.49856 7571 ft 233 kts 276°
2026-04-23 18:07 26.33384 127.48074 7950 ft 234 kts 276°
2026-04-23 18:08 26.33527 127.46864 8182 ft 233 kts 266°
2026-04-23 18:08 26.32801 127.44680 8680 ft 231 kts 236°
2026-04-23 18:08 26.31649 127.43417 9070 ft 236 kts 216°
2026-04-23 18:08 26.30118 127.42702 9460 ft 244 kts 196°
2026-04-23 18:09 26.28409 127.42498 9853 ft 250 kts 187°
2026-04-23 18:09 26.26661 127.42469 10250 ft 251 kts 187°
2026-04-23 18:09 26.24912 127.42385 10631 ft 252 kts 189°
2026-04-23 18:09 26.23159 127.42241 11015 ft 253 kts 190°
2026-04-23 18:10 26.21396 127.42111 11390 ft 255 kts 189°
2026-04-23 18:10 26.19619 127.41996 11766 ft 257 kts 189°
2026-04-23 18:10 26.17819 127.42105 12109 ft 266 kts 170°
2026-04-23 18:10 26.16127 127.42972 12491 ft 275 kts 149°
2026-04-23 18:11 26.14785 127.44537 12868 ft 288 kts 126°
2026-04-23 18:11 26.14054 127.46649 13256 ft 302 kts 102°
2026-04-23 18:11 26.13925 127.49033 13675 ft 317 kts 90°
2026-04-23 18:11 26.14130 127.51531 14100 ft 331 kts 85°
2026-04-23 18:12 26.14429 127.54124 14523 ft 344 kts 86°
2026-04-23 18:12 26.14617 127.56804 14940 ft 349 kts 90°
2026-04-23 18:12 26.14721 127.59513 15338 ft 352 kts 90°
2026-04-23 18:12 26.14869 127.62243 15714 ft 355 kts 88°
2026-04-23 18:13 26.15066 127.64989 16097 ft 357 kts 88°
2026-04-23 18:13 26.15251 127.67753 16471 ft 359 kts 89°
2026-04-23 18:13 26.15409 127.70535 16842 ft 362 kts 89°
2026-04-23 18:13 26.15572 127.73341 17211 ft 364 kts 88°
2026-04-23 18:14 26.15749 127.76159 17591 ft 367 kts 89°
2026-04-23 18:14 26.15928 127.79002 17965 ft 369 kts 89°
2026-04-23 18:14 26.16097 127.81865 18343 ft 372 kts 89°
2026-04-23 18:14 26.16266 127.84739 18718 ft 374 kts 89°
2026-04-23 18:15 26.16440 127.87632 19094 ft 376 kts 89°
2026-04-23 18:15 26.16654 127.90542 19461 ft 380 kts 83°
2026-04-23 18:15 26.17380 127.93380 19821 ft 384 kts 67°
2026-04-23 18:15 26.18712 127.95960 20190 ft 386 kts 51°
2026-04-23 18:16 26.20542 127.98082 20567 ft 386 kts 36°
2026-04-23 18:16 26.22718 127.99826 20947 ft 386 kts 29°
2026-04-23 18:16 26.25068 128.01349 21333 ft 387 kts 25°
2026-04-23 18:17 26.29729 128.04358 22095 ft 393 kts 29°
2026-04-23 18:17 26.32042 128.06007 22466 ft 396 kts 28°
2026-04-23 18:17 26.34399 128.07612 22845 ft 398 kts 27°
2026-04-23 18:17 26.36794 128.09188 23218 ft 401 kts 27°
2026-04-23 18:18 26.39185 128.10797 23594 ft 403 kts 28°
2026-04-23 18:18 26.41583 128.12446 23974 ft 405 kts 28°
2026-04-23 18:18 26.43995 128.14092 24347 ft 408 kts 27°
2026-04-23 18:18 26.46431 128.15732 24721 ft 410 kts 27°
2026-04-23 18:19 26.48874 128.17384 25097 ft 411 kts 27°
2026-04-23 18:19 26.51321 128.19055 25471 ft 413 kts 27°
2026-04-23 18:19 26.53780 128.20728 25845 ft 415 kts 27°
2026-04-23 18:19 26.56256 128.22409 26219 ft 417 kts 27°
2026-04-23 18:20 26.58743 128.24098 26596 ft 419 kts 27°
2026-04-23 18:20 26.61227 128.25824 26972 ft 423 kts 31°
2026-04-23 18:20 26.63491 128.27953 27359 ft 427 kts 40°
2026-04-23 18:20 26.65562 128.30342 27738 ft 429 kts 46°
2026-04-23 18:21 26.67503 128.32886 28116 ft 430 kts 47°
2026-04-23 18:21 26.69481 128.35387 28482 ft 429 kts 44°
2026-04-23 18:21 26.71552 128.37784 28849 ft 428 kts 42°
2026-04-23 18:21 26.73616 128.40186 29220 ft 428 kts 44°
2026-04-23 18:22 26.75620 128.42655 29586 ft 428 kts 45°
2026-04-23 18:22 26.77610 128.45121 29948 ft 426 kts 44°
2026-04-23 18:22 26.79631 128.47542 30313 ft 424 kts 43°
2026-04-23 18:22 26.81648 128.49941 30674 ft 422 kts 43°
2026-04-23 18:23 26.82964 128.51534 30910 ft 421 kts 44°
2026-04-23 18:23 26.87689 128.57282 31007 ft 438 kts 43°
2026-04-23 18:24 26.91916 128.62393 31011 ft 456 kts 44°
2026-04-23 18:24 26.94085 128.65037 31014 ft 465 kts 44°
2026-04-23 18:25 27.00718 128.73096 31009 ft 469 kts 44°
2026-04-23 18:25 27.05218 128.78571 31013 ft 486 kts 44°
2026-04-23 18:26 27.09870 128.84243 31007 ft 502 kts 44°
2026-04-23 18:26 27.13852 128.89103 31007 ft 515 kts 44°
2026-04-23 18:26 27.16305 128.92097 30900 ft 525 kts 44°
2026-04-23 18:27 27.18794 128.95140 30870 ft 533 kts 45°
2026-04-23 18:27 27.23873 129.01356 30864 ft 546 kts 45°
2026-04-23 18:28 27.29066 129.07720 30863 ft 558 kts 45°
2026-04-23 18:28 27.34361 129.14221 30859 ft 568 kts 45°
2026-04-23 18:29 27.39711 129.20795 30860 ft 570 kts 45°
2026-04-23 18:29 27.45065 129.27386 30859 ft 571 kts 45°
2026-04-23 18:30 27.50421 129.33992 30859 ft 570 kts 45°
2026-04-23 18:30 27.55777 129.40599 30858 ft 571 kts 45°
2026-04-23 18:31 27.61134 129.47229 30858 ft 572 kts 45°
2026-04-23 18:31 27.66492 129.53862 30844 ft 573 kts 44°
2026-04-23 18:32 27.71847 129.60509 30844 ft 572 kts 45°
2026-04-23 18:32 27.77210 129.67170 30845 ft 573 kts 45°
2026-04-23 18:33 27.82566 129.73841 30844 ft 573 kts 44°
2026-04-23 18:33 27.87922 129.80507 30836 ft 573 kts 44°
2026-04-23 18:34 27.93270 129.87197 30837 ft 574 kts 44°
2026-04-23 18:34 27.98625 129.93882 30836 ft 574 kts 44°
2026-04-23 18:35 28.03937 130.00542 30836 ft 574 kts 44°
2026-04-23 18:35 28.09324 130.07295 30835 ft 574 kts 45°
2026-04-23 18:36 28.14628 130.13962 30836 ft 574 kts 45°
2026-04-23 18:36 28.20005 130.20729 30836 ft 574 kts 45°
2026-04-23 18:37 28.25350 130.27465 30834 ft 575 kts 45°
2026-04-23 18:37 28.30692 130.34211 30836 ft 575 kts 45°
2026-04-23 18:38 28.36002 130.40928 30835 ft 575 kts 45°
2026-04-23 18:38 28.41343 130.47692 30835 ft 575 kts 45°
2026-04-23 18:39 28.46685 130.54471 30835 ft 576 kts 44°
2026-04-23 18:39 28.52024 130.61258 30835 ft 576 kts 44°
2026-04-23 18:40 28.57369 130.68058 30834 ft 576 kts 44°
2026-04-23 18:40 28.62702 130.74858 30836 ft 576 kts 44°
2026-04-23 18:41 28.68037 130.81672 30835 ft 577 kts 44°
2026-04-23 18:41 28.73375 130.88502 30835 ft 576 kts 44°
2026-04-23 18:42 28.78704 130.95331 30834 ft 576 kts 44°
2026-04-23 18:42 28.84032 131.02168 30833 ft 577 kts 44°
2026-04-23 18:43 28.89362 131.09023 30835 ft 577 kts 44°
2026-04-23 18:43 28.94686 131.15877 30834 ft 577 kts 44°
2026-04-23 18:44 29.00010 131.22747 30834 ft 577 kts 44°
2026-04-23 18:44 29.05329 131.29620 30834 ft 578 kts 44°
2026-04-23 18:45 29.10653 131.36510 30826 ft 578 kts 44°
2026-04-23 18:45 29.15977 131.43413 30827 ft 579 kts 44°
2026-04-23 18:46 29.21300 131.50329 30827 ft 580 kts 44°
2026-04-23 18:46 29.26630 131.57261 30827 ft 581 kts 44°
2026-04-23 18:47 29.31962 131.64211 30827 ft 581 kts 44°
2026-04-23 18:47 29.37253 131.71117 30827 ft 581 kts 44°
2026-04-23 18:48 29.42579 131.78091 30828 ft 581 kts 44°
2026-04-23 18:48 29.47918 131.85074 30825 ft 582 kts 44°
2026-04-23 18:49 29.53255 131.92081 30828 ft 583 kts 44°
2026-04-23 18:49 29.58588 131.99099 30826 ft 583 kts 44°
2026-04-23 18:50 29.63064 132.04982 30826 ft 582 kts 44°
2026-04-23 18:50 29.69168 132.13250 30832 ft 586 kts 46°
2026-04-23 18:51 29.74266 132.20566 30821 ft 585 kts 46°
2026-04-23 18:51 29.79478 132.27752 30822 ft 585 kts 46°
2026-04-23 18:52 29.84586 132.35042 30823 ft 584 kts 46°
2026-04-23 18:52 29.89750 132.42252 30823 ft 584 kts 45°
2026-04-23 18:53 29.94862 132.49512 30824 ft 583 kts 46°
2026-04-23 18:53 29.99980 132.56743 30822 ft 581 kts 46°
2026-04-23 18:54 30.05091 132.63977 30824 ft 584 kts 46°
2026-04-23 18:54 30.10202 132.71255 30823 ft 583 kts 46°
2026-04-23 18:55 30.15314 132.78506 30822 ft 582 kts 46°
2026-04-23 18:55 30.20402 132.85777 30826 ft 581 kts 46°
2026-04-23 18:56 30.24632 132.91803 30823 ft 580 kts 46°
2026-04-23 18:56 30.30550 133.00276 30822 ft 578 kts 46°
2026-04-23 18:57 30.35602 133.07509 30823 ft 577 kts 46°
2026-04-23 18:57 30.40634 133.14741 30822 ft 576 kts 47°
2026-04-23 18:58 30.45662 133.21962 30822 ft 575 kts 47°
2026-04-23 18:58 30.50674 133.29182 30802 ft 574 kts 46°
2026-04-23 18:59 30.55669 133.36405 30804 ft 574 kts 47°
2026-04-23 18:59 30.60666 133.43622 30803 ft 573 kts 47°
2026-04-23 19:00 30.65648 133.50845 30803 ft 573 kts 47°
2026-04-23 19:00 30.70628 133.58069 30807 ft 573 kts 47°
2026-04-23 19:01 30.75612 133.65291 30817 ft 573 kts 47°
2026-04-23 19:01 30.80567 133.72554 30819 ft 574 kts 47°
2026-04-23 19:02 30.84709 133.78576 30821 ft 573 kts 47°
2026-04-23 19:02 30.90500 133.87034 30820 ft 576 kts 47°
2026-04-23 19:03 30.95484 133.94344 30819 ft 576 kts 47°
2026-04-23 19:03 31.00483 134.01663 30816 ft 578 kts 48°
2026-04-23 19:04 31.05450 134.08973 30814 ft 574 kts 48°
2026-04-23 19:04 31.10422 134.16283 30819 ft 576 kts 49°
2026-04-23 19:05 31.15399 134.23632 30818 ft 577 kts 49°
2026-04-23 19:05 31.20383 134.30989 30813 ft 578 kts 49°
2026-04-23 19:06 31.25357 134.38360 30813 ft 578 kts 49°
2026-04-23 19:06 31.30341 134.45747 30820 ft 579 kts 49°
2026-04-23 19:07 31.35324 134.53160 30816 ft 580 kts 49°
2026-04-23 19:07 31.40313 134.60582 30813 ft 580 kts 49°
2026-04-23 19:08 31.45287 134.68012 30822 ft 580 kts 49°
2026-04-23 19:08 31.50260 134.75439 30818 ft 579 kts 49°
2026-04-23 19:09 31.55222 134.82875 30818 ft 579 kts 49°
2026-04-23 19:09 31.60182 134.90315 30812 ft 578 kts 49°
2026-04-23 19:10 31.65130 134.97754 30818 ft 578 kts 49°
2026-04-23 19:10 31.70073 135.05202 30814 ft 578 kts 50°
2026-04-23 19:11 31.75199 135.12446 30812 ft 575 kts 44°
2026-04-23 19:11 31.79807 135.18065 30812 ft 575 kts 44°
2026-04-23 19:12 31.85074 135.25145 30822 ft 575 kts 46°
2026-04-23 19:12 31.90466 135.32082 30816 ft 574 kts 44°
2026-04-23 19:13 31.95798 135.39098 30834 ft 576 kts 46°
2026-04-23 19:13 32.01135 135.46105 30828 ft 574 kts 44°
2026-04-23 19:14 32.06507 135.53125 30827 ft 578 kts 46°
2026-04-23 19:14 32.11835 135.60190 30827 ft 576 kts 45°
2026-04-23 19:15 32.17201 135.67217 30828 ft 576 kts 46°
2026-04-23 19:15 32.22524 135.74296 30826 ft 577 kts 45°
2026-04-23 19:16 32.27875 135.81344 30826 ft 576 kts 46°
2026-04-23 19:16 32.33191 135.88425 30826 ft 576 kts 46°
2026-04-23 19:17 32.41191 135.99045 30827 ft 577 kts 46°
2026-04-23 19:17 32.46483 136.06103 30826 ft 577 kts 46°
2026-04-23 19:18 32.51816 136.13201 30826 ft 577 kts 46°
2026-04-23 19:18 32.57141 136.20328 30825 ft 578 kts 46°
2026-04-23 19:19 32.65129 136.31025 30827 ft 578 kts 46°
2026-04-23 19:20 32.73131 136.41770 30825 ft 579 kts 46°
2026-04-23 19:20 32.78464 136.48955 30825 ft 580 kts 46°
2026-04-23 19:21 32.86475 136.59766 30824 ft 581 kts 46°
2026-04-23 19:22 32.91819 136.66998 30824 ft 582 kts 46°
2026-04-23 19:22 32.99845 136.77868 30824 ft 583 kts 46°
2026-04-23 19:23 33.05195 136.85138 30824 ft 583 kts 46°
2026-04-23 19:24 33.13222 136.96065 30824 ft 584 kts 46°
2026-04-23 19:24 33.21250 137.07027 30823 ft 585 kts 46°
2026-04-23 19:25 33.31963 137.21716 30823 ft 587 kts 46°
2026-04-23 19:26 33.39998 137.32775 30825 ft 588 kts 46°
2026-04-23 19:27 33.53416 137.51313 30826 ft 590 kts 46°
2026-04-23 19:28 33.63506 137.66880 30832 ft 597 kts 58°
2026-04-23 19:29 33.69322 137.80129 30824 ft 598 kts 59°
2026-04-23 19:30 33.75337 137.93299 30828 ft 600 kts 60°
2026-04-23 19:31 33.81399 138.06452 30828 ft 600 kts 60°
2026-04-23 19:31 33.85350 138.15214 30827 ft 600 kts 59°
2026-04-23 19:32 33.89381 138.24009 30831 ft 600 kts 59°
2026-04-23 19:32 33.93359 138.32843 30836 ft 600 kts 60°
2026-04-23 19:33 33.97359 138.41649 30837 ft 599 kts 60°
2026-04-23 19:33 34.03317 138.54893 30834 ft 600 kts 60°
2026-04-23 19:34 34.07292 138.63730 30835 ft 599 kts 60°
2026-04-23 19:35 34.13232 138.76995 30834 ft 598 kts 60°
2026-04-23 19:35 34.17176 138.85821 30834 ft 597 kts 60°
2026-04-23 19:36 34.21111 138.94664 30838 ft 597 kts 60°
2026-04-23 19:36 34.25040 139.03494 30837 ft 597 kts 61°
2026-04-23 19:37 34.28945 139.12335 30840 ft 595 kts 61°
2026-04-23 19:37 34.32858 139.21164 30842 ft 595 kts 60°
2026-04-23 19:38 34.36756 139.30001 30844 ft 595 kts 59°
2026-04-23 19:38 34.39151 139.34046 30814 ft 591 kts 46°
2026-04-23 19:38 34.42039 139.37548 30482 ft 585 kts 36°
2026-04-23 19:38 34.45274 139.40460 30064 ft 575 kts 27°
2026-04-23 19:39 34.48709 139.42748 29562 ft 551 kts 20°
2026-04-23 19:39 34.52074 139.44627 29036 ft 529 kts 16°
2026-04-23 19:39 34.55426 139.46270 28445 ft 512 kts 14°
2026-04-23 19:39 34.58688 139.47897 27810 ft 503 kts 17°
2026-04-23 19:40 34.61843 139.49653 27168 ft 496 kts 19°
2026-04-23 19:40 34.64949 139.51410 26506 ft 489 kts 18°
2026-04-23 19:40 34.68042 139.53044 25847 ft 482 kts 16°
2026-04-23 19:40 34.71112 139.54624 25197 ft 477 kts 17°
2026-04-23 19:41 34.74133 139.56252 24548 ft 473 kts 18°
2026-04-23 19:41 34.77114 139.57899 23901 ft 468 kts 18°
2026-04-23 19:41 34.80076 139.59497 23253 ft 462 kts 17°
2026-04-23 19:41 34.83010 139.61051 22618 ft 457 kts 17°
2026-04-23 19:42 34.85906 139.62605 21985 ft 452 kts 18°
2026-04-23 19:42 34.88761 139.64161 21351 ft 447 kts 18°
2026-04-23 19:42 34.91584 139.65690 20721 ft 441 kts 17°
2026-04-23 19:42 34.94377 139.67190 20095 ft 436 kts 17°
2026-04-23 19:43 34.97133 139.68676 19488 ft 431 kts 18°
2026-04-23 19:43 34.99853 139.70153 18883 ft 425 kts 18°
2026-04-23 19:43 35.02539 139.71609 18278 ft 420 kts 18°
2026-04-23 19:43 35.05200 139.73048 17684 ft 415 kts 18°
2026-04-23 19:44 35.07820 139.74468 17096 ft 410 kts 18°
2026-04-23 19:44 35.10410 139.75875 16507 ft 405 kts 18°
2026-04-23 19:44 35.12969 139.77263 15935 ft 399 kts 18°
2026-04-23 19:44 35.15490 139.78631 15366 ft 394 kts 19°
2026-04-23 19:45 35.17990 139.79905 14787 ft 385 kts 12°
2026-04-23 19:45 35.20558 139.80523 14203 ft 368 kts 359°
2026-04-23 19:45 35.23056 139.80463 13663 ft 352 kts 347°
2026-04-23 19:45 35.25414 139.79914 13216 ft 338 kts 341°
2026-04-23 19:46 35.27611 139.79184 12771 ft 324 kts 339°
2026-04-23 19:46 35.29764 139.78665 12306 ft 311 kts 353°
2026-04-23 19:46 35.31908 139.78861 11829 ft 301 kts
2026-04-23 19:46 35.33839 139.79660 11360 ft 294 kts 22°
2026-04-23 19:47 35.35047 139.80447 11058 ft 288 kts 27°
2026-04-23 19:47 35.37230 139.82170 10319 ft 280 kts 31°
2026-04-23 19:47 35.38884 139.83512 9328 ft 289 kts 30°
2026-04-23 19:47 35.40644 139.84716 8339 ft 291 kts 19°
2026-04-23 19:48 35.42614 139.85175 7342 ft 288 kts
2026-04-23 19:48 35.44574 139.84831 6367 ft 285 kts 343°
2026-04-23 19:48 35.46370 139.83923 5369 ft 270 kts 333°
2026-04-23 19:48 35.47904 139.82762 4364 ft 250 kts 330°
2026-04-23 19:49 35.49306 139.81617 3375 ft 235 kts 333°
2026-04-23 19:49 35.50685 139.80647 2376 ft 222 kts 338°
2026-04-23 19:49 35.51961 139.79790 1434 ft 190 kts 335°
2026-04-23 19:49 35.53051 139.79072 461 ft 163 kts 333°
2026-04-23 19:50 35.53921 139.78398 57 ft 133 kts 329°
2026-04-23 19:50 35.54566 139.77920 28 ft 65 kts 330°
2026-04-23 19:50 35.54813 139.77732 28 ft 29 kts 312°
2026-04-23 19:50 35.54915 139.77565 27 ft 9 kts 298°
2026-04-23 19:51 35.54951 139.77484 26 ft 12 kts 299°
2026-04-23 19:51 35.54994 139.77392 26 ft 12 kts 300°
2026-04-23 19:51 35.55020 139.77352 26 ft 0 kts 315°
2026-04-23 19:52 35.55021 139.77351 26 ft 0 kts 298°
2026-04-23 19:52 35.55021 139.77349 26 ft 0 kts 278°
2026-04-23 19:52 35.55019 139.77329 26 ft 4 kts 245°
2026-04-23 19:52 35.55009 139.77318 26 ft 1 kts 189°
2026-04-23 19:53 35.54981 139.77312 26 ft 5 kts 189°
2026-04-23 19:53 35.54957 139.77306 26 ft 2 kts 196°
2026-04-23 19:53 35.54954 139.77305 28 ft 0 kts 196°
2026-04-23 19:53 35.54953 139.77305 26 ft 0 kts 196°
2026-04-23 19:54 35.54925 139.77300 26 ft 7 kts 175°
2026-04-23 19:54 35.54874 139.77323 26 ft 9 kts 153°
2026-04-23 19:54 35.54834 139.77338 26 ft 2 kts 209°
2026-04-23 19:54 35.54832 139.77335 26 ft 1 kts 238°
2026-04-23 19:55 35.54827 139.77322 26 ft 4 kts 246°
2026-04-23 19:55 35.54809 139.77273 26 ft 8 kts 246°
2026-04-23 19:55 35.54784 139.77205 26 ft 9 kts 244°
2026-04-23 19:55 35.54754 139.77142 26 ft 10 kts 240°
2026-04-23 19:56 35.54736 139.77110 26 ft 4 kts 218°
2026-04-23 19:56 35.54700 139.77094 26 ft 7 kts 183°
2026-04-23 19:56 35.54660 139.77104 26 ft 5 kts 172°
2026-04-23 19:56 35.54621 139.77091 26 ft 7 kts 218°
2026-04-23 19:57 35.54590 139.77037 26 ft 9 kts 242°
2026-04-23 19:57 35.54586 139.77027 26 ft 1 kts 242°
2026-04-23 19:57 35.54585 139.77025 26 ft 0 kts 242°